User: anonymous   Login
Location: Newark
(48.8481°N, 20.9372°E)
Time: 01:25:30
(UTC+00:00)
Language:

LilacSat-2 - Orbit

View from above orbital plane
View from above orbital plane
View from above satellite
View from above satellite

Ground track
Ground track

The orbit data is extracted from the following two-line orbital elements,

1 40908U 15049K   20093.76102189  .00000085  00000-0  82980-5 0  9993
2 40908  97.4904  94.3849 0014257 286.0624 126.0834 15.13989086250540
Epoch (UTC): 02 April 2020 18:15:52
Eccentricity: 0.0014257
inclination: 97.4904°
perigee height: 514 km
apogee height: 534 km
right ascension of ascending node: 94.3849°
argument of perigee: 286.0624°
revolutions per day: 15.13989086
mean anomaly at epoch: 126.0834°
orbit number at epoch: 25054

The dashed part of the orbit path shows where the satellite is in the earth's shadow,  

DLR